#timestamp,LO_Frequency,Hit,StdDev 
1508778015.7,286046992.4,N
1508778035.5,286046994.1,N
1508778055.4,286046997.0,N
1508778075.2,286046998.3,N
1508778095.1,286046997.3,N
1508778096.0,286046997.3,N
1508778115.8,286046997.4,N
1508778135.6,286046994.5,N
1508778155.5,286046993.8,N
1508778175.3,286046997.4,N
1508778195.1,286046996.3,N
1508778215.9,286046990.1,Y
1508778235.7,286046993.4,P
1508778255.5,286046996.0,N
1508778275.4,286046997.2,N
1508778295.2,286046993.7,Y
1508778315.0,286046992.3,P
1508778315.9,286046992.3,P
1508778335.8,286046989.5,P
1508778355.6,286046990.0,Y
1508778375.5,286046998.0,P
1508778395.3,286046992.7,N
1508778415.1,286046989.7,P
1508778435.9,286046986.5,Y
1508778455.7,286046996.3,P
1508778475.5,286046999.1,N
1508778495.4,286047000.1,N
1508778515.2,286046998.7,N
1508778535.0,286046999.5,N
1508778535.9,286046999.5,N
1508778555.8,286046999.6,N
1508778575.6,286047000.6,N
1508778595.4,286047003.1,N
1508778615.3,286047003.5,N
1508778635.1,286047006.9,N
1508778655.8,286047005.3,N
1508778675.7,286047003.5,N
1508778695.5,286047004.2,N
1508778715.3,286047005.2,N
1508778735.2,286047005.7,N
1508778755.0,286047006.6,N
1508778755.9,286047006.6,N
1508778775.7,286047007.2,N
1508778795.6,286047006.2,N
1508778815.4,286047009.2,N
1508778835.2,286047010.4,N
1508778855.1,286047009.7,N
1508778856.0,286047009.7,N
1508778875.8,286047009.8,N
1508778895.7,286047008.5,N
1508778915.5,286047010.0,N
1508778935.3,286047012.4,N
1508778955.2,286047007.7,N
1508778975.9,286047012.0,N
1508778995.7,286047011.1,N
1508779015.6,286047010.9,N
1508779035.4,286047012.3,Y
1508779055.2,286047002.9,P
1508779075.1,286047006.8,P
1508779076.0,286047006.8,P
1508779095.8,286047005.7,Y
1508779115.7,286046996.7,P
1508779135.5,286046998.9,N
1508779155.3,286046998.5,N
1508779175.2,286047000.2,N
1508779195.9,286047000.8,N
1508779215.7,286047000.5,N
1508779235.6,286047002.3,N
1508779255.4,286047002.2,N
1508779275.2,286047000.0,N
1508779295.1,286046998.0,N
1508779296.0,286046998.0,N
1508779315.8,286047000.4,N
1508779335.6,286047006.0,N
1508779355.5,286047001.4,N
1508779375.3,286047002.1,N
1508779395.1,286047005.2,N
1508779415.9,286047007.7,N
1508779435.7,286047007.0,N
1508779455.5,286047009.1,N
1508779475.4,286047010.0,N
1508779495.2,286047011.9,Y
1508779515.1,286047010.5,P
1508779516.0,286047010.5,N
1508779535.8,286047009.4,N
1508779555.6,286047009.3,N
1508779575.5,286047009.8,Y
1508779595.3,286047004.1,P
1508779615.1,286047006.0,N
1508779635.9,286047005.8,P
1508779655.7,286047002.9,N
1508779675.5,286047002.9,N
1508779695.4,286047004.1,N
1508779715.2,286047001.8,N
1508779735.0,286047002.7,N
1508779735.9,286047002.7,N
1508779755.8,286047004.1,N
1508779775.6,286047002.4,N
1508779795.4,286046997.2,N
1508779815.3,286046997.7,N
1508779835.1,286046996.6,N
1508779855.8,286046999.5,N
1508779875.7,286046996.9,N
1508779895.5,286047000.7,N
1508779915.3,286046998.5,N
1508779935.2,286046997.3,N
1508779955.0,286046993.8,N
1508779955.9,286046993.8,N
1508779975.8,286046991.0,N
1508779995.6,286046988.5,N
1508780015.4,286046992.8,N
1508780035.3,286046992.2,N
1508780055.1,286046995.3,N
1508780056.0,286046995.3,N
1508780075.8,286046997.5,N
1508780095.7,286046996.5,N
1508780115.5,286046995.3,N
1508780135.3,286046995.5,N
1508780155.2,286046993.6,N
1508780175.9,286046993.3,N
1508780195.7,286046996.2,N
1508780215.6,286046993.6,N
1508780235.4,286046992.8,N
1508780255.2,286046992.7,N
1508780275.1,286046991.1,N
1508780276.0,286046991.1,N
1508780295.8,286046989.2,Y
1508780315.7,286046992.4,P
1508780335.5,286046992.7,P
1508780355.3,286046991.7,P
1508780375.2,286046995.8,N
1508780395.9,286046997.5,N
1508780415.7,286046998.0,N
1508780435.6,286046995.7,N
1508780455.4,286046994.8,N
1508780475.2,286046994.0,N
1508780495.1,286046991.7,Y
1508780496.0,286046991.7,P
1508780515.8,286046997.2,N
1508780535.6,286046995.8,N
1508780555.5,286046992.4,Y
1508780575.3,286046999.9,P
1508780595.1,286047000.2,N
1508780615.9,286047001.5,N
1508780635.7,286047003.0,N
1508780655.5,286047001.5,N
1508780675.4,286047000.8,N
1508780695.2,286047001.0,N
1508780715.1,286047002.0,N
1508780716.0,286047002.0,N
1508780735.8,286047002.6,N
1508780755.6,286046998.7,N
1508780775.5,286046998.2,N
1508780795.3,286046998.5,N
1508780815.1,286046996.7,N
1508780835.9,286046998.4,N
1508780855.7,286046999.4,N
1508780875.5,286046999.5,N
1508780895.4,286046997.4,N
1508780915.2,286046995.7,N
1508780935.0,286046995.3,N
1508780935.9,286046995.3,N
1508780955.8,286046997.6,N
1508780975.6,286046997.0,N
1508780995.4,286046996.6,N
1508781015.3,286046999.9,N
1508781035.1,286047001.6,N
1508781036.0,286047001.6,N
1508781055.8,286046999.8,N
1508781075.7,286047001.2,N
1508781095.5,286047000.2,N
1508781115.3,286046998.2,N
1508781135.2,286046999.4,N
1508781155.0,286046999.5,N
1508781155.9,286046999.5,N
1508781175.7,286046999.0,N
1508781195.6,286047001.2,N
1508781215.4,286047003.6,N
1508781235.3,286047011.9,Y
1508781255.1,286047014.2,P
1508781256.0,286047014.2,N
1508781275.8,286047016.3,N
1508781295.7,286047016.1,N
1508781315.5,286047017.5,N
1508781335.3,286047021.3,Y
1508781355.2,286047007.1,P
1508781375.9,286047010.8,P
1508781395.7,286047009.4,P
1508781415.6,286047012.3,Y
1508781435.4,286047002.5,P
1508781455.2,286047002.4,N
1508781475.1,286047000.0,N
1508781476.0,286047000.0,N
1508781495.8,286047002.2,N
1508781515.6,286047002.3,N
1508781535.5,286047001.4,N
1508781555.3,286047003.2,N
1508781575.1,286047002.4,N
1508781595.9,286046997.0,N
